Time,TemperatureF,DewpointF,PressureIn,WindDirection,WindDirectionDegrees,WindSpeedMPH,WindSpeedGustMPH,Humidity,HourlyPrecipIn,Conditions,Clouds,dailyrainin,SolarRadiationWatts/m^2,SoftwareType,DateUTC
2013-03-02 00:01:00,60.0,34.0,-100.00,ESE,119,10.0,11.0,38,0.00,,,0.00,0.000000,,2013-03-02 08:01:00,
2013-03-02 00:11:00,60.0,34.0,-100.00,ESE,119,10.0,11.0,38,0.00,,,0.00,0.000000,,2013-03-02 08:11:00,
2013-03-02 00:21:00,60.0,34.0,-100.00,ESE,119,10.0,11.0,38,0.00,,,0.00,0.000000,,2013-03-02 08:21:00,
2013-03-02 00:52:00,59.0,41.0,-100.00,SE,131,10.0,14.0,52,0.00,,,0.00,0.000000,,2013-03-02 08:52:00,
2013-03-02 01:01:00,59.0,41.0,-100.00,SE,131,10.0,14.0,52,0.00,,,0.00,0.000000,,2013-03-02 09:01:00,
2013-03-02 01:11:00,59.0,41.0,-100.00,SE,131,10.0,14.0,52,0.00,,,0.00,0.000000,,2013-03-02 09:11:00,
2013-03-02 01:21:00,59.0,41.0,-100.00,SE,131,10.0,14.0,52,0.00,,,0.00,0.000000,,2013-03-02 09:21:00,
2013-03-02 01:52:00,58.0,42.0,-100.00,ESE,119,9.0,12.0,56,0.00,,,0.00,0.000000,,2013-03-02 09:52:00,
2013-03-02 02:01:00,58.0,42.0,-100.00,ESE,119,9.0,12.0,56,0.00,,,0.00,0.000000,,2013-03-02 10:01:00,
2013-03-02 02:52:00,58.0,43.0,-100.00,SE,133,11.0,15.0,58,0.00,,,0.00,0.000000,,2013-03-02 10:52:00,
2013-03-02 03:01:00,58.0,43.0,-100.00,SE,133,11.0,15.0,58,0.00,,,0.00,0.000000,,2013-03-02 11:01:00,
2013-03-02 03:52:00,58.0,42.0,-100.00,SE,139,10.0,16.0,56,0.00,,,0.00,0.000000,,2013-03-02 11:52:00,
2013-03-02 04:02:00,58.0,42.0,-100.00,SE,139,10.0,16.0,56,0.00,,,0.00,0.000000,,2013-03-02 12:02:00,
2013-03-02 04:11:00,58.0,42.0,-100.00,SE,139,10.0,16.0,56,0.00,,,0.00,0.000000,,2013-03-02 12:11:00,
2013-03-02 04:21:00,58.0,42.0,-100.00,SE,139,10.0,16.0,56,0.00,,,0.00,0.000000,,2013-03-02 12:21:00,
2013-03-02 04:53:00,57.0,43.0,-100.00,SE,143,10.0,15.0,59,0.00,,,0.00,0.000000,,2013-03-02 12:53:00,
2013-03-02 05:01:00,57.0,43.0,-100.00,SE,143,10.0,15.0,59,0.00,,,0.00,0.000000,,2013-03-02 13:01:00,
2013-03-02 05:52:00,58.0,42.0,-100.00,SE,146,10.0,16.0,56,0.00,,,0.00,0.000000,,2013-03-02 13:52:00,
2013-03-02 06:01:00,58.0,42.0,-100.00,SE,146,10.0,16.0,56,0.00,,,0.00,0.000000,,2013-03-02 14:01:00,
2013-03-02 06:52:00,59.0,43.0,-100.00,SSE,160,11.0,15.0,56,0.00,,,0.00,0.000000,,2013-03-02 14:52:00,
2013-03-02 07:52:00,60.0,40.0,-100.00,South,177,10.0,15.0,48,-99.99,,,0.00,21.000000,,2013-03-02 15:52:00,
2013-03-02 08:52:00,64.0,43.0,-100.00,South,176,3.0,11.0,47,0.00,,,0.00,166.000000,,2013-03-02 16:52:00,
2013-03-02 09:52:00,64.0,47.0,-100.00,WSW,240,4.0,6.0,55,-99.99,,,0.00,275.000000,,2013-03-02 17:52:00,
2013-03-02 10:52:00,66.0,47.0,-100.00,WSW,246,5.0,7.0,51,-99.99,,,0.00,415.000000,,2013-03-02 18:52:00,
2013-03-02 11:52:00,65.0,49.0,-100.00,ESE,104,2.0,8.0,56,0.00,,,0.00,513.000000,,2013-03-02 19:52:00,
2013-03-02 12:01:00,65.0,49.0,-100.00,ESE,104,2.0,8.0,56,0.00,,,0.00,513.000000,,2013-03-02 20:01:00,
2013-03-02 12:11:00,65.0,49.0,-100.00,ESE,104,2.0,8.0,56,0.00,,,0.00,513.000000,,2013-03-02 20:11:00,
2013-03-02 12:21:00,65.0,49.0,-100.00,ESE,104,2.0,8.0,56,0.00,,,0.00,513.000000,,2013-03-02 20:21:00,
2013-03-02 12:52:00,63.0,48.0,-100.00,East,83,3.0,8.0,58,0.00,,,-99.99,488.000000,,2013-03-02 20:52:00,
2013-03-02 13:02:00,63.0,48.0,-100.00,East,83,3.0,8.0,58,0.00,,,-99.99,488.000000,,2013-03-02 21:02:00,
2013-03-02 13:11:00,63.0,48.0,-100.00,East,83,3.0,8.0,58,0.00,,,-99.99,488.000000,,2013-03-02 21:11:00,
2013-03-02 13:21:00,63.0,48.0,-100.00,East,83,3.0,8.0,58,0.00,,,-99.99,488.000000,,2013-03-02 21:21:00,
2013-03-02 13:52:00,66.0,53.0,-100.00,SE,125,3.0,7.0,62,0.00,,,0.00,490.000000,,2013-03-02 21:52:00,
2013-03-02 14:01:00,66.0,53.0,-100.00,SE,125,3.0,7.0,62,0.00,,,0.00,490.000000,,2013-03-02 22:01:00,
2013-03-02 14:11:00,66.0,53.0,-100.00,SE,125,3.0,7.0,62,0.00,,,0.00,490.000000,,2013-03-02 22:11:00,
2013-03-02 14:21:00,66.0,53.0,-100.00,SE,125,3.0,7.0,62,0.00,,,0.00,490.000000,,2013-03-02 22:21:00,
2013-03-02 14:52:00,68.0,50.0,-100.00,WSW,241,5.0,11.0,53,0.00,,,0.00,402.000000,,2013-03-02 22:52:00,
2013-03-02 15:01:00,68.0,50.0,-100.00,WSW,241,5.0,11.0,53,0.00,,,0.00,402.000000,,2013-03-02 23:01:00,
2013-03-02 15:11:00,68.0,50.0,-100.00,WSW,241,5.0,11.0,53,0.00,,,0.00,402.000000,,2013-03-02 23:11:00,
2013-03-02 15:21:00,68.0,50.0,-100.00,WSW,241,5.0,11.0,53,0.00,,,0.00,402.000000,,2013-03-02 23:21:00,
2013-03-02 15:52:00,63.0,48.0,-100.00,NNE,28,3.0,7.0,58,0.00,,,0.00,291.000000,,2013-03-02 23:52:00,
2013-03-02 16:02:00,63.0,48.0,-100.00,NNE,28,3.0,7.0,58,0.00,,,0.00,291.000000,,2013-03-03 00:02:00,
2013-03-02 16:11:00,63.0,48.0,-100.00,NNE,28,3.0,7.0,58,0.00,,,0.00,291.000000,,2013-03-03 00:11:00,
2013-03-02 16:22:00,63.0,48.0,-100.00,NNE,28,3.0,7.0,58,0.00,,,0.00,291.000000,,2013-03-03 00:22:00,
2013-03-02 16:52:00,62.0,49.0,-100.00,WNW,286,3.0,6.0,63,0.00,,,0.00,110.000000,,2013-03-03 00:52:00,
2013-03-02 17:01:00,62.0,49.0,-100.00,WNW,286,3.0,6.0,63,0.00,,,0.00,110.000000,,2013-03-03 01:01:00,
2013-03-02 17:11:00,62.0,49.0,-100.00,WNW,286,3.0,6.0,63,0.00,,,0.00,110.000000,,2013-03-03 01:11:00,
2013-03-02 17:21:00,62.0,49.0,-100.00,WNW,286,3.0,6.0,63,0.00,,,0.00,110.000000,,2013-03-03 01:21:00,
2013-03-02 17:52:00,59.0,50.0,-100.00,WNW,294,5.0,9.0,71,0.00,,,0.00,53.000000,,2013-03-03 01:52:00,
2013-03-02 18:01:00,59.0,50.0,-100.00,WNW,294,5.0,9.0,71,0.00,,,0.00,53.000000,,2013-03-03 02:01:00,
2013-03-02 18:11:00,59.0,50.0,-100.00,WNW,294,5.0,9.0,71,0.00,,,0.00,53.000000,,2013-03-03 02:11:00,
2013-03-02 18:21:00,59.0,50.0,-100.00,WNW,294,5.0,9.0,71,0.00,,,0.00,53.000000,,2013-03-03 02:21:00,
2013-03-02 18:52:00,56.0,48.0,-100.00,West,276,8.0,13.0,75,0.00,,,0.00,7.000000,,2013-03-03 02:52:00,
2013-03-02 19:01:00,56.0,48.0,-100.00,West,276,8.0,13.0,75,0.00,,,0.00,7.000000,,2013-03-03 03:01:00,
2013-03-02 19:11:00,56.0,48.0,-100.00,West,276,8.0,13.0,75,0.00,,,0.00,7.000000,,2013-03-03 03:11:00,
2013-03-02 19:21:00,56.0,48.0,-100.00,West,276,8.0,13.0,75,0.00,,,0.00,7.000000,,2013-03-03 03:21:00,
2013-03-02 19:52:00,56.0,44.0,-100.00,WSW,243,12.0,16.0,63,0.00,,,0.00,0.000000,,2013-03-03 03:52:00,
2013-03-02 20:01:00,56.0,44.0,-100.00,WSW,243,12.0,16.0,63,0.00,,,0.00,0.000000,,2013-03-03 04:01:00,
2013-03-02 20:11:00,56.0,44.0,-100.00,WSW,243,12.0,16.0,63,0.00,,,0.00,0.000000,,2013-03-03 04:11:00,
2013-03-02 20:21:00,56.0,44.0,-100.00,WSW,243,12.0,16.0,63,0.00,,,0.00,0.000000,,2013-03-03 04:21:00,
2013-03-02 20:52:00,56.0,38.0,-100.00,SW,228,17.0,24.0,50,0.00,,,0.00,0.000000,,2013-03-03 04:52:00,
2013-03-02 21:01:00,56.0,38.0,-100.00,SW,228,17.0,24.0,50,0.00,,,0.00,0.000000,,2013-03-03 05:01:00,
2013-03-02 21:52:00,54.0,42.0,-100.00,SW,233,17.0,22.0,63,0.00,,,0.00,0.000000,,2013-03-03 05:52:00,
2013-03-02 22:01:00,54.0,42.0,-100.00,SW,233,17.0,22.0,63,0.00,,,0.00,0.000000,,2013-03-03 06:01:00,
2013-03-02 22:11:00,54.0,42.0,-100.00,SW,233,17.0,22.0,63,0.00,,,0.00,0.000000,,2013-03-03 06:11:00,
2013-03-02 22:21:00,54.0,42.0,-100.00,SW,233,17.0,22.0,63,0.00,,,0.00,0.000000,,2013-03-03 06:21:00,
2013-03-02 22:52:00,51.0,43.0,-100.00,WSW,242,17.0,23.0,73,0.00,,,0.00,0.000000,,2013-03-03 06:52:00,
2013-03-02 23:01:00,51.0,43.0,-100.00,WSW,242,17.0,23.0,73,0.00,,,0.00,0.000000,,2013-03-03 07:01:00,
2013-03-02 23:11:00,51.0,43.0,-100.00,WSW,242,17.0,23.0,73,0.00,,,0.00,0.000000,,2013-03-03 07:11:00,
2013-03-02 23:21:00,51.0,43.0,-100.00,WSW,242,17.0,23.0,73,0.00,,,0.00,0.000000,,2013-03-03 07:21:00,
2013-03-02 23:52:00,52.0,44.0,-100.00,SW,226,16.0,24.0,74,0.00,,,0.00,0.000000,,2013-03-03 07:52:00,